Terminal Aerodrome Forecast
Issued by NWS Louisville, KY

Home | Current Version | Previous Version | Text Only | Print | Product List | Glossary On
Versions: 1 2 3 4 5 6 7 8 9 10 11 12 13 14 15 16 17 18
000
FTUS43 KLMK 240500
TAFSDF
TAF
KSDF 240524Z 2406/2512 VRB03KT P6SM SKC
     FM242000 15006KT P6SM BKN070
     FM250900 13007KT 5SM -SHRA BKN025=

USA.gov is the U.S. government's official web portal to all federal, state and local government web resources and services.